sat.trackr.live / text

‹ back to catalog

STARLINK-32740

NORAD 62754 · 2025-014V

PAYLOAD ACTIVE UNKNOWN

§ Identity

Operator
Country
US
Launch date
2025-01-21
Launch site
AFETR
Launch vehicle
Mass (kg)
RCS (m²)

Purposes: comms

External: N2YO · Heavens-Above · Gunter

§ Orbital elements

Epoch: 2026-09-21T22:12:22.597056Z

Period
94.27 min
Inclination
43.0012°
Eccentricity
0.0001195
Mean motion
15.27590621 rev/d
Perigee alt
482.2 km
Apogee alt
483.8 km
Semi-major
6,861.2 km
B*
3.7743e-4
RAAN
125.7650°
Arg perigee
268.1375°
Mean anomaly
91.9340°
Rev number
9,327

§ Raw data

STARLINK-327401 62754U 25014V   26264.92526154  .00010142  00000+0  37743-3 0  99942 62754  43.0012 125.7650 0001195 268.1375  91.9340 15.27590621 93275

JSON: /api/v1/satellites/62754 · /tle

For live sub-satellite position, see the globe view (requires WebGL).

§ Visibility from observer

Set your observer location to see the next 7 days of passes ≥ 10°. The values pass through the URL so the page stays shareable.

No JS? Fill the form by hand. The geolocation button needs JavaScript.